Regional Weather Roundup
Issued by NWS San Angelo, TX

Home | Current Version | Previous Version | Text Only | Print | Product List | Glossary On
Versions: 1 2 3 4 5 6 7 8 9 10 11 12 13 14 15 16 17 18 19 20 21 22 23 24 25 26 27 28 29 30 31 32 33 34 35 36 37 38 39 40 41 42 43 44 45 46 47 48 49 50
000
ASUS44 KSJT 191210
RWRSJT
WEST CENTRAL TEXAS REGIONAL WEATHER ROUNDUP
NATIONAL WEATHER SERVICE SAN ANGELO TX
700 AM CDT TUE SEP 19 2017

NOTE: "FAIR" INDICATES FEW OR NO CLOUDS BELOW 12,000 FEET WITH NO
SIGNIFICANT WEATHER AND/OR OBSTRUCTIONS TO VISIBILITY.

TXZ049-054-064>066-071>073-076>078-098-099-113-114-127-128-139-140-
154-155-168>170-191300
...LOCATIONS ACROSS WEST CENTRAL TEXAS...

CITY           SKY/WX    TMP DP  RH WIND       PRES   REMARKS
SAN ANGELO     MOCLDY    75  68  78 S6        29.93R
ABILENE        PTCLDY    74  69  85 S8        29.92R
DYESS AFB      CLEAR     76  68  77 S9        29.90S
JUNCTION       PTCLDY    76  70  82 CALM      29.95R
SWEETWATER     CLOUDY    75  65  70 S16       29.95S
BROWNWOOD      CLEAR     73  72  94 SE7       29.94R
COLEMAN        SUNNY     74  68  83 S7        29.94R
SONORA         CLOUDY    75  70  83 CALM      30.00R
OZONA          FAIR      73  68  83 S8        29.98S
BRADY          NOT AVBL
$$

TEXAS PANHANDLE/OKLAHOMA PANHANDLE

CITY           SKY/WX    TMP DP  RH WIND       PRES   REMARKS
AMARILLO       CLEAR     68  60  75 SW17      29.90S
BORGER         CLEAR     72  61  68 SW9G21    29.85S
CANADIAN       CLEAR     68  64  88 CALM      29.82F
DALHART        CLEAR     55  54  96 SW8       29.89R
DUMAS          SUNNY     64  58  80 SW13      29.87S
GUYMON         NOT AVBL
HEREFORD       SUNNY     67  62  82 SW15G21   29.93S
PAMPA          SUNNY     67  61  80 S15       29.87S
PERRYTON       CLEAR     67  64  87 S10       29.81F
$$

SOUTHERN PANHANDLE/SOUTH PLAINS/ROLLING PLAINS

CITY           SKY/WX    TMP DP  RH WIND       PRES   REMARKS
LUBBOCK        PTCLDY    74  61  63 SW14      29.92R
SNYDER         MOCLDY    73  63  69 S10       29.93S
CHILDRESS      CLEAR     67  63  87 S9        29.86F
SEMINOLE       CLOUDY    66  59  79 SW6       29.97S
$$

PERMIAN BASIN

CITY           SKY/WX    TMP DP  RH WIND       PRES   REMARKS
MIDLAND        MOCLDY    80  57  45 SE12      29.93F
ODESSA         CLOUDY    81  52  36 SW23      29.95R
WINK           PTCLDY    71  61  70 S6        29.94R
$$

FAR WEST/SOUTHWEST MOUNTAINS/TRANS PECOS

CITY           SKY/WX    TMP DP  RH WIND       PRES   REMARKS
ALPINE         CLOUDY    71  51  48 SW8       30.12R
DRYDEN           N/A     77  67  71 CALM      29.93R
EL PASO        PTCLDY    74  55  51 SW10      30.02R
FORT STOCKTON  CLOUDY    74  62  66 SE12      29.97R
GUADALUPE PASS CLEAR     68  47  46 SW9       30.14R
MARFA          NOT AVBL
PECOS          MOSUNNY   73  60  65 CALM      29.93S
$$

DALLAS/FORT WORTH METROPLEX

CITY           SKY/WX    TMP DP  RH WIND       PRES   REMARKS
DFW AIRPORT    MOCLDY    76  73  91 S12       29.90R
FTW MEACHAM    CLEAR     77  74  90 SE9       29.90R
DAL-EXECUTIVE  CLOUDY    75  73  93 VRB7      29.92R
GRAND PRAIRIE  CLOUDY    86  63  45 S8        29.93R
ADDISON        CLOUDY    75  70  83 S12       29.92S
MESQUITE       CLOUDY    73  72  94 S9        29.93S
LANCASTER      CLOUDY    75  72  89 S8        29.93S
$$

NORTH CENTRAL TEXAS

CITY           SKY/WX    TMP DP  RH WIND       PRES   REMARKS
SHRMAN/DENISON SUNNY     72  70  93 SE7       29.92R
GAINESVILLE    CLEAR     73  70  93 S7        29.92R
BRIDGEPORT     MOSUNNY   73  73 100 SE3       29.91F
DENTON         CLEAR     73  73 100 S8        29.90S
WAXAHACHIE     CLOUDY    74  74 100 S10       29.94S
GRANBURY       SUNNY     75  72  90 SE7       29.92S
$$

WESTERN NORTH TEXAS

CITY           SKY/WX    TMP DP  RH WIND       PRES   REMARKS
WICHITA FALLS  CLOUDY    74  70  87 S10       29.86R
VERNON         SUNNY     72  63  73 S3        29.86R
BRECKENRIDGE   MOSUNNY   77  69  77 S10       29.89S
COMANCHE       CLEAR     73  73 100 S6        29.94R
$$

CENTRAL AND SOUTH CENTRAL TEXAS

CITY           SKY/WX    TMP DP  RH WIND       PRES   REMARKS
AUSTIN/BERGSTM CLOUDY    78  76  93 SE9       29.94R
WACO           MOCLDY    77  74  90 S12       29.93S
HILLSBORO      CLOUDY    76  73  91 S12       29.94R
TEMPLE         CLOUDY    75  74  96 S12       29.95R
KILLEEN-GRAY   CLEAR     73  72  94 S7        29.94R
FORT HOOD      CLEAR     71  70  97 S7        29.91S
GEORGETOWN     MOCLDY    78  73  84 S8        29.96S
LAGO VISTA     PTSUNNY   75  73  94 S5        29.97R
SAN MARCOS     MOCLDY    75  74  96 SE6       29.95S
NEW BRAUNFELS  PTCLDY    76  74  93 S6        29.93S FOG
RANDOLPH AFB   MOCLDY    76  76 100 S7        29.94S FOG
SAN ANTONIO    MOCLDY    79  73  82 S9        29.95S
STINSON        CLOUDY    79  76  90 E3        29.92S
PLEASANTON     NOT AVBL
LA GRANGE      PTCLDY    78  77  97 S3        29.94R FOG
GIDDINGS       CLOUDY    75  74  95 S3        29.96S FOG
$$

EAST TEXAS

CITY           SKY/WX    TMP DP  RH WIND       PRES   REMARKS
PARIS          CLOUDY    71  71 100 S8        29.94S FOG
CLARKSVILLE    NOT AVBL
TYLER          CLOUDY    75  74  96 SW8       29.95S
LONGVIEW       MOCLDY    74  74 100 SW7       29.94R
PALESTINE      CLOUDY    75  75 100 S8        29.97S
NACOGDOCHES    CLOUDY    75  74  96 SW5       29.98R FOG
$$

TEXAS HILL COUNTRY AND EDWARDS PLATEAU

CITY           SKY/WX    TMP DP  RH WIND       PRES   REMARKS
LLANO          MOSUNNY   72  70  94 CALM      29.97F
HORSESHOE BAY  FAIR      74  71  88 CALM      29.95R
KERRVILLE      CLOUDY    74  72  92 S7        29.98R
FREDERICKSBRG  MOCLDY    73  69  87 S5        29.97F
ROCKSPRINGS    NOT AVBL
HONDO          CLOUDY    78  74  87 SE7       29.94S
UVALDE         MOSUNNY   74  72  93 E6        29.94R
DEL RIO        CLEAR     78  71  79 E8        29.89R
$$

SOUTHEAST TEXAS

CITY           SKY/WX    TMP DP  RH WIND       PRES   REMARKS
COLLEGE STN    CLOUDY    77  76  96 S8        29.96R FOG
CALDWELL       CLOUDY    76  75  97 S5        29.96R FOG
CROCKETT       CLOUDY    75  75 100 S5        29.99S FOG
BRENHAM        CLOUDY    78  77  99 SE3       29.96S FOG
HUNTSVILLE     CLOUDY    77  74  90 S7        29.96S
CONROE         FOG       73  73 100 CALM      29.97R VSB 1/2
HOUSTON BUSH   PTCLDY    74  73  97 CALM      29.96R
HOUSTON HOBBY  PTCLDY    79  76  90 CALM      29.95R
PERLAND        CLEAR     79  75  87 CALM      29.96R
WHARTON        SUNNY     75  74  95 SE5       29.95R
$$

THE UPPER TEXAS COAST

CITY           SKY/WX    TMP DP  RH WIND       PRES   REMARKS
ORANGE         FOG       75  75 100 CALM      29.98S VSB 1/2
PORT ARTHUR    FOG       73  73 100 CALM      29.96R VSB 1/4
GALVESTON      PTCLDY    83  79  88 S10       29.95S
ANGLETON       LGT RAIN  77  75  93 CALM      29.94F
BAY CITY       SUNNY     76  76 100 SE5       29.94S
$$

TEXAS COASTAL BEND, RIO GRANDE PLAINS DEEP SOUTH TEXAS

CITY           SKY/WX    TMP DP  RH WIND       PRES   REMARKS
VICTORIA       PTCLDY    76  74  93 E3        29.94R
BEEVILLE       FOG       73  73 100 E5        29.93R VSB 1/4
ROCKPORT       CLEAR     81  77  88 S7        29.92R
PORT ARANSAS   NOT AVBL
PORT LAVACA    NOT AVBL
CORPUS CHRISTI PTCLDY    77  77 100 SE5       29.91R
KINGSVILLE NAS PTCLDY    76  76 100 CALM      29.91R FOG
COTULLA        PTCLDY    77  72  84 SE6       29.91R
LAREDO         CLEAR     79  74  84 SE10      29.90S
BROWNSVILLE    CLOUDY    80  80 100 S7        29.91S
PORT ISABEL    CLEAR     81  78  91 S9        29.90S
HEBBRONVILLE   NOT AVBL
MCALLEN        PTCLDY    81  77  88 SE8       29.91R
WESLACO        CLEAR     78  75  91 S7        29.89S
FALFURRIAS     CLOUDY   -38  32 100 CALM      29.91R
EDINBURG       SUNNY     79  76  89 CALM      29.91R FOG
$$




USA.gov is the U.S. government's official web portal to all federal, state and local government web resources and services.